[[{"header":{"parameterUnit":"m.s-1","parameterCategory":1,"la1":30.2991,"la2":30.254,"lo1":-89.0895,"lo2":-89.0444,"dy":0.0017,"dx":0.0017,"nx":28,"ny":28,"refTime":"2024-08-31T09:00:00:Z","depth":0,"parameterNumber":2,"parameterNumberName":"U-component_of_WINDS"},"data":[0,0,0,0,0,0,0,0,0,0,0,0,0,0,0,0,0,0,0,0,0,0,0,0,0,0,0,0,0,0,0,0,0,0,0,0,0,0,0,0,0,0,0,0,0,0,0,0,0,0,0,0,0,0,0,0,0,0,-2.7,-2.7,0,-2.7,-2.7,-2.7,-2.6864,-2.686,-2.6856,-2.6853,-2.6855,-2.6859,-2.6862,0,0,0,0,0,0,0,0,0,0,0,0,0,-2.6883,-2.6886,-2.7,-2.7,-2.7,-2.7,-2.7,-2.7,-2.6864,-2.686,-2.6856,-2.6851,-2.6854,-2.6858,-2.6862,0,0,0,0,0,0,0,0,0,0,0,0,0,-2.6914,-2.6887,-2.7,-2.6932,-2.6926,-2.7,-2.7,-2.7,-2.6865,-2.686,-2.6854,-2.6849,-2.6853,-2.6858,-2.6863,-2.7003,0,0,-2.6879,-2.6881,0,0,0,0,0,0,0,0,-2.6912,-2.6918,-2.6942,-2.6937,-2.693,-2.6926,-2.696,-2.7001,-2.6867,-2.6889,-2.6853,-2.6847,-2.6884,-2.6886,-2.6898,-2.7003,-2.7003,-2.6879,-2.6882,-2.6884,-2.6886,0,0,0,0,0,0,0,-2.691,-2.6918,-2.7,-2.6943,-2.6936,-2.6902,-2.6901,-2.6967,-2.6916,-2.6886,-2.6876,-2.6878,-2.6879,-2.6893,-2.6897,-2.7003,-2.6879,-2.6883,-2.6887,-2.6889,-2.7222,-2.7227,0,0,0,0,0,0,-2.6917,-2.6917,-2.7,-2.7,-2.6908,-2.6909,-2.6907,-2.6933,-2.6915,-2.6907,-2.6883,-2.6872,-2.6887,-2.6891,-2.6896,-2.7058,-2.6884,-2.6889,-2.6892,-2.7216,-2.7223,-2.7229,0,0,0,0,0,0,-2.6915,-2.6926,-2.7,-2.6956,-2.6963,-2.6916,-2.6947,-2.6936,-2.695,-2.6913,-2.6903,-2.6906,-2.6883,-2.6889,-2.6977,-2.7056,-2.6891,-2.6896,-2.7209,-2.7218,-2.7226,-2.7384,0,0,0,0,0,0,-2.6913,-2.6926,-2.6979,-2.6958,-2.6966,-2.7081,-2.6952,-2.694,-2.6959,-2.6944,-2.6932,-2.6925,-2.6879,-2.697,-2.6982,-2.706,-2.69,-2.7202,-2.7213,-2.7223,-2.7371,-2.7397,-2.7418,0,0,0,0,0,-2.6909,-2.7024,-2.6982,-2.6993,-2.703,-2.7086,-2.709,-2.7035,-2.6966,-2.7018,-2.6994,-2.6925,-2.7046,-2.698,-2.6993,-2.7074,-2.7197,-2.721,-2.7223,-2.7361,-2.7392,-2.7418,0,0,0,0,0,0,-2.7056,-2.702,-2.6973,-2.7085,-2.709,-2.7063,-2.7127,-2.707,-2.7095,-2.708,-2.7011,-2.7009,-2.7108,-2.7099,-2.7027,-2.7207,-2.7109,-2.7125,-2.721,-2.7239,-2.7262,-2.7262,-2.6904,0,0,0,0,0,-2.7102,-2.7149,-2.7115,-2.7217,-2.7222,-2.7175,-2.7197,-2.7153,-2.7156,-2.7157,-2.7139,-2.7145,-2.7183,-2.721,-2.7244,-2.7369,-2.7364,-2.7431,-2.7455,-2.7474,-2.7489,-2.7554,-2.7583,-2.7272,-2.7272,-2.7271,0,0,-2.7196,-2.7182,-2.7217,-2.7246,-2.7245,-2.7296,-2.7177,-2.7237,-2.7274,-2.7166,-2.7248,-2.7235,-2.7236,-2.7343,-2.7389,-2.7339,-2.7574,-2.7491,-2.7507,-2.7511,-2.757,-2.7599,-2.7626,-2.7281,-2.7279,-2.7278,0,0,-2.7394,-2.7389,-2.7472,-2.7473,-2.7472,-2.7439,-2.746,-2.7441,-2.7429,-2.7509,-2.7429,-2.7473,-2.7541,-2.7545,-2.7556,-2.7755,-2.7692,-2.7768,-2.7891,-2.7955,-2.798,-2.8001,-2.8072,-2.8098,-2.7783,-2.7783,-2.7783,0,-2.7512,-2.7586,-2.7523,-2.7588,-2.7603,-2.7506,-2.7591,-2.7594,-2.7605,-2.7618,-2.7561,-2.7644,-2.7638,-2.7744,-2.7793,-2.7805,-2.7826,-2.7769,-2.7981,-2.8002,-2.8021,-2.8087,-2.8114,-2.7792,-2.7791,-2.779,-2.7789,0,-2.773,-2.7783,-2.785,-2.7862,-2.7884,-2.7959,-2.7907,-2.7938,-2.7893,-2.7867,-2.7949,-2.7939,-2.7968,-2.799,-2.7947,-2.809,-2.8059,-2.7993,-2.7892,-2.8061,-2.8122,-2.8147,-2.7805,-2.7802,-2.7799,-2.7797,0,0,-2.8023,-2.7997,-2.8023,-2.8026,-2.8017,-2.8057,-2.8126,-2.8154,-2.8182,-2.8192,-2.8249,-2.8308,-2.8247,-2.8259,-2.8216,-2.8272,-2.8429,-2.8198,-2.8197,-2.8241,-2.8586,-2.8635,-2.8666,-2.8387,-2.8392,-2.8396,-2.8585,0,-2.8214,-2.8331,-2.8276,-2.8399,-2.8446,-2.8355,-2.8416,-2.8417,-2.8394,-2.8431,-2.8406,-2.8449,-2.8365,-2.8372,-2.8423,-2.8399,-2.8497,-2.8385,-2.844,-2.8442,-2.8442,-2.8698,-2.8751,-2.893,-2.8609,-2.8613,-2.8616,0,-2.8453,-2.8472,-2.86,-2.8581,-2.8599,-2.8655,-2.8675,-2.8712,-2.8711,-2.869,-2.8704,-2.8647,-2.8714,-2.8615,-2.8706,-2.8631,-2.865,-2.8641,-2.8647,-2.865,-2.854,-2.8708,-2.8986,-2.9013,-2.8653,-2.865,-2.8647,0,-2.8653,-2.8711,-2.8794,-2.88,-2.8781,-2.8821,-2.8815,-2.8809,-2.8829,-2.8847,-2.8859,-2.8886,-2.8901,-2.8923,-2.8874,-2.8806,-2.8972,-2.8868,-2.8957,-2.8959,-2.8996,-2.8995,-2.9282,-2.901,-2.9009,-2.9009,-2.9008,0,-2.8873,-2.8955,-2.8883,-2.8935,-2.9024,-2.896,-2.9049,-2.9033,-2.9029,-2.9075,-2.8999,-2.9044,-2.8978,-2.9017,-2.898,-2.9061,-2.9068,-2.9053,-2.9043,-2.906,-2.9062,-2.9072,-2.9058,-2.9016,-2.9014,-2.9013,-2.9012,0,-2.9111,-2.9067,-2.9152,-2.9126,-2.9121,-2.9188,-2.9165,-2.9212,-2.9183,-2.9244,-2.9254,-2.921,-2.9252,-2.9206,-2.9245,-2.9219,-2.9329,-2.93,-2.9329,-2.9321,-2.9412,-2.9404,-2.9715,-2.9753,-2.9457,-2.946,-2.9462,0,-2.9254,-2.9315,-2.9295,-2.932,-2.9318,-2.936,-2.938,-2.9319,-2.9343,-2.9346,-2.9392,-2.9428,-2.9453,-2.9525,-2.9496,-2.9526,-2.9496,-2.9603,-2.95,-2.9516,-2.9497,-2.9494,-2.95,-2.9625,-2.9628,-2.9631,-2.9633,0,-2.9513,-2.9487,-2.9518,-2.9541,-2.9566,-2.9582,-2.9592,-2.9617,-2.9554,-2.9584,-2.9626,-2.9645,-2.9684,-2.9721,-2.9742,-2.9735,-2.9675,-2.9666,-2.9688,-2.9707,-2.9721,-2.9714,-2.9386,-2.9659,-2.9657,-2.9655,-2.9653,-2.9652,-2.9707,-2.9756,-2.9749,-2.9786,-2.9787,-2.9797,-2.9839,-2.9816,-2.9849,-2.9875,-2.9838,-2.9889,-2.9886,-2.9908,-2.9909,-2.9949,-2.9903,-2.9935,-2.9943,-2.9952,-2.9965,-2.9715,-2.9952,-2.9951,-2.9951,-2.995,-2.995,0,-2.9961,-2.9952,-2.9986,-3.0001,-3.003,-2.9969,-2.9976,-3.0005,-3.0051,-3.0053,-3.0079,-3.0126,-3.0161,-3.0135,-3.0164,-3.0201,-3.0173,-3.021,-3.0207,-3.0206,-3.0005,-2.9983,-3.0232,-3.0232,-3.0232,-3.0232,-3.0231,-3.0231,-3.0097,-3.0176,-3.015,-3.0229,-3.0219,-3.0268,-3.0278,-3.0287,-3.0288,-3.0344,-3.0372,-3.0355,-3.0345,-3.0373,-3.0402,-3.0393,-3.0407,-3.0454,-3.0436,-3.0248,-3.0221,-3.0194,-3.0173,-3.0458,-3.0458,-3.0634,-3.0635,-3.0637]},{"header":{"parameterUnit":"m.s-1","parameterCategory":1,"la1":30.2991,"la2":30.254,"lo1":-89.0895,"lo2":-89.0444,"dy":0.0017,"dx":0.0017,"nx":28,"ny":28,"refTime":"2024-08-31T09:00:00:Z","depth":0,"parameterNumber":3,"parameterNumberName":"V-component_of_WINDS"},"data":[0,0,0,0,0,0,0,0,0,0,0,0,0,0,0,0,0,0,0,0,0,0,0,0,0,0,0,0,0,0,0,0,0,0,0,0,0,0,0,0,0,0,0,0,0,0,0,0,0,0,0,0,0,0,0,0,0,0,-0.8586,-0.8586,0,-0.8608,-0.8608,-0.8609,-0.8643,-0.8643,-0.8644,-0.8644,-0.8666,-0.8666,-0.8666,0,0,0,0,0,0,0,0,0,0,0,0,0,-0.857,-0.857,-0.8586,-0.8586,-0.8586,-0.8608,-0.8608,-0.8609,-0.8642,-0.8643,-0.8644,-0.8645,-0.8666,-0.8666,-0.8666,0,0,0,0,0,0,0,0,0,0,0,0,0,-0.8583,-0.857,-0.8585,-0.8606,-0.8608,-0.8608,-0.8608,-0.8609,-0.8642,-0.8643,-0.8644,-0.8645,-0.8666,-0.8666,-0.8666,-0.8648,0,0,-0.8666,-0.8666,0,0,0,0,0,0,0,0,-0.8582,-0.8583,-0.8602,-0.8604,-0.8607,-0.8623,-0.8611,-0.8622,-0.8642,-0.8629,-0.8644,-0.8645,-0.8651,-0.8652,-0.8655,-0.8649,-0.865,-0.8666,-0.8666,-0.8666,-0.8666,0,0,0,0,0,0,0,-0.8581,-0.8583,-0.8594,-0.8603,-0.8605,-0.8613,-0.8616,-0.8613,-0.8635,-0.863,-0.8633,-0.8635,-0.8652,-0.8655,-0.8655,-0.8651,-0.8666,-0.8666,-0.8666,-0.8666,-0.863,-0.8629,0,0,0,0,0,0,-0.8578,-0.8582,-0.8594,-0.8595,-0.8596,-0.8612,-0.8616,-0.8617,-0.8635,-0.8638,-0.8634,-0.8637,-0.8654,-0.8655,-0.8656,-0.8635,-0.8666,-0.8666,-0.8666,-0.8631,-0.8629,-0.8628,0,0,0,0,0,0,-0.8577,-0.8578,-0.8593,-0.8589,-0.8592,-0.8612,-0.8613,-0.8617,-0.8619,-0.8638,-0.8642,-0.8633,-0.8655,-0.8656,-0.865,-0.8636,-0.8666,-0.8666,-0.8632,-0.863,-0.8629,-0.8593,0,0,0,0,0,0,-0.8577,-0.8578,-0.8572,-0.8589,-0.8592,-0.8586,-0.8612,-0.8617,-0.8619,-0.8622,-0.8637,-0.8641,-0.8656,-0.8649,-0.865,-0.8637,-0.8666,-0.8633,-0.8631,-0.8629,-0.8595,-0.859,-0.8586,0,0,0,0,0,-0.8576,-0.8561,-0.8571,-0.8573,-0.8584,-0.8585,-0.8587,-0.8605,-0.8618,-0.8612,-0.8623,-0.864,-0.8638,-0.8648,-0.8649,-0.8636,-0.8634,-0.8632,-0.863,-0.8597,-0.8591,-0.8586,0,0,0,0,0,0,-0.8542,-0.8564,-0.8575,-0.8566,-0.8573,-0.8591,-0.8584,-0.8598,-0.8602,-0.8605,-0.8627,-0.863,-0.862,-0.8628,-0.8639,-0.8619,-0.8638,-0.8636,-0.8614,-0.8608,-0.8604,-0.8601,-0.8666,0,0,0,0,0,-0.8533,-0.8533,-0.8552,-0.8541,-0.8544,-0.8563,-0.8564,-0.8577,-0.8586,-0.859,-0.8601,-0.8608,-0.8609,-0.861,-0.8612,-0.8597,-0.86,-0.8588,-0.8584,-0.858,-0.8577,-0.8568,-0.8563,-0.8621,-0.8621,-0.8621,0,0,-0.8515,-0.8527,-0.8525,-0.8534,-0.8542,-0.854,-0.8566,-0.8563,-0.8561,-0.8589,-0.8583,-0.8592,-0.8601,-0.859,-0.8586,-0.8596,-0.8562,-0.8577,-0.8574,-0.8573,-0.8565,-0.856,-0.8555,-0.862,-0.862,-0.862,0,0,-0.8481,-0.8491,-0.8482,-0.8489,-0.85,-0.8513,-0.8511,-0.8526,-0.8533,-0.8527,-0.8548,-0.8546,-0.8548,-0.8553,-0.8556,-0.8523,-0.8538,-0.8523,-0.8499,-0.849,-0.8485,-0.8481,-0.8468,-0.8463,-0.8521,-0.8521,-0.8521,0,-0.8457,-0.8456,-0.8476,-0.8471,-0.8474,-0.8499,-0.849,-0.8496,-0.8507,-0.8508,-0.852,-0.8521,-0.853,-0.8519,-0.8511,-0.8513,-0.851,-0.8521,-0.8484,-0.8481,-0.8477,-0.8464,-0.846,-0.8519,-0.8519,-0.8519,-0.852,0,-0.8425,-0.8423,-0.8415,-0.8425,-0.8427,-0.842,-0.8438,-0.8438,-0.8451,-0.8462,-0.8455,-0.8466,-0.847,-0.8469,-0.8481,-0.846,-0.8466,-0.8481,-0.85,-0.8469,-0.8458,-0.8453,-0.8516,-0.8517,-0.8517,-0.8518,0,0,-0.837,-0.839,-0.8387,-0.8391,-0.8405,-0.8403,-0.8397,-0.8401,-0.84,-0.8406,-0.8401,-0.8401,-0.8415,-0.8418,-0.8432,-0.8424,-0.8395,-0.844,-0.844,-0.8429,-0.837,-0.8357,-0.8351,-0.8405,-0.8405,-0.8404,-0.8368,0,-0.8337,-0.8328,-0.8346,-0.8332,-0.833,-0.8353,-0.8348,-0.8355,-0.8365,-0.8364,-0.8375,-0.8374,-0.8393,-0.8395,-0.8389,-0.84,-0.8383,-0.8403,-0.8399,-0.8399,-0.8394,-0.8346,-0.8333,-0.8298,-0.8364,-0.8363,-0.8363,0,-0.8298,-0.8302,-0.8288,-0.8302,-0.8301,-0.8296,-0.83,-0.83,-0.8308,-0.8316,-0.8319,-0.8335,-0.8329,-0.8349,-0.834,-0.8353,-0.8353,-0.8358,-0.8357,-0.8356,-0.8378,-0.8342,-0.8288,-0.8282,-0.8356,-0.8357,-0.8357,0,-0.8257,-0.8259,-0.8251,-0.8254,-0.827,-0.8265,-0.8271,-0.8281,-0.8282,-0.8285,-0.8286,-0.8289,-0.829,-0.8291,-0.8307,-0.8321,-0.8295,-0.8318,-0.83,-0.83,-0.8293,-0.8293,-0.8237,-0.8295,-0.8295,-0.8296,-0.8296,0,-0.8218,-0.8208,-0.8232,-0.8227,-0.8216,-0.8236,-0.8225,-0.8233,-0.8241,-0.8237,-0.8258,-0.8254,-0.8276,-0.8273,-0.8286,-0.8275,-0.8276,-0.8281,-0.8284,-0.8278,-0.8277,-0.8277,-0.8279,-0.8294,-0.8294,-0.8295,-0.8295,0,-0.8169,-0.8186,-0.8178,-0.8193,-0.8197,-0.8188,-0.8201,-0.8196,-0.8207,-0.8202,-0.8201,-0.8219,-0.8217,-0.8233,-0.8235,-0.8243,-0.8226,-0.8234,-0.8223,-0.8225,-0.8206,-0.8207,-0.8147,-0.8139,-0.8204,-0.8204,-0.8203,0,-0.8142,-0.8135,-0.815,-0.8149,-0.8154,-0.8152,-0.8153,-0.8172,-0.8172,-0.818,-0.8174,-0.8174,-0.8175,-0.8171,-0.8183,-0.8184,-0.8191,-0.817,-0.8191,-0.8185,-0.8189,-0.8188,-0.8187,-0.8165,-0.8164,-0.8164,-0.8163,0,-0.8092,-0.8101,-0.8101,-0.8104,-0.8104,-0.8107,-0.8112,-0.811,-0.8131,-0.8129,-0.8128,-0.8128,-0.8129,-0.8129,-0.8132,-0.8138,-0.8153,-0.8156,-0.8152,-0.8145,-0.8138,-0.814,-0.8209,-0.8157,-0.8158,-0.8158,-0.8159,-0.8159,-0.8053,-0.8047,-0.8056,-0.8055,-0.8061,-0.8064,-0.806,-0.807,-0.807,-0.8072,-0.8084,-0.8079,-0.8087,-0.8093,-0.8097,-0.8093,-0.8104,-0.8098,-0.8096,-0.8094,-0.809,-0.814,-0.8094,-0.8095,-0.8095,-0.8095,-0.8095,0,-0.8002,-0.8009,-0.8009,-0.8014,-0.8013,-0.8029,-0.8034,-0.8032,-0.8028,-0.8034,-0.8034,-0.8032,-0.8031,-0.8043,-0.8043,-0.8038,-0.8045,-0.8037,-0.8037,-0.8038,-0.8082,-0.8084,-0.8032,-0.8032,-0.8032,-0.8032,-0.8032,-0.8032,-0.7976,-0.7966,-0.7975,-0.7968,-0.7975,-0.7971,-0.7972,-0.7975,-0.798,-0.7976,-0.7975,-0.7983,-0.7991,-0.7992,-0.7992,-0.7995,-0.7993,-0.7983,-0.7988,-0.8029,-0.8035,-0.8041,-0.8043,-0.7983,-0.7983,-0.7945,-0.7944,-0.7944]}]]